Home > Weather > Juneau > Past weeks

Flag for USA Past Weather in Juneau, Alaska, USA — Yesterday and Last 2 Weeks

Now
57 °F

Mostly cloudy.


Feels Like: 56 °F
Forecast: 52 / 56 °F
Wind: 7 mph from East

Location: Juneau International Airport

Current Time: Jul 25, 2016 at 8:41:08 PM

Latest Report: Jul 25, 2016 at 7:53 PM


Visibility: 10 mi

Pressure: 30.10 "Hg

Humidity: 81%

Dew Point: 51 °F

Location of JuneauLocation

Past Weather in Juneau — Graph

°F

Juneau Temperature Yesterday

Maximum temperature yesterday: 56 °F (at 1:53 PM)
Minimum temperature yesterday: 54 °F (at 12:53 AM)
Average temperature yesterday: 55 °F

High & Low Weather Summary for the Past Weeks

 TemperatureHumidityPressure
High82 °F (Jul 18, 5:53 PM)97% (Jul 14, 5:53 AM)30.35 "Hg (Jul 14, 5:53 AM)
Low52 °F (Jul 18, 4:53 AM)39% (Jul 18, 7:53 PM)29.68 "Hg (Jul 23, 12:53 PM)
Average60 °F80%30.02 "Hg
* Reported Jul 10 6:53 PM — Jul 25 6:53 PM, Juneau, Weather by CustomWeather, © 2016

Note: Actual official high and low records may vary slightly from our data, if they occured in-between our weather recording intervals... More about our weather records

Advertising

Juneau Weather History for the Previous 24 Hours

Scroll right to see more
 ConditionsComfort  
Time TempWeatherWind HumidityBarometerVisibility
6:53 PM
Mon, Jul 25
57 °FMostly cloudy.12 mph78%30.10 "Hg10 mi
5:53 PM57 °FMostly cloudy.9 mph78%30.11 "Hg10 mi
4:53 PM58 °FMore clouds than sun.10 mph78%30.11 "Hg10 mi
3:53 PM58 °FMostly cloudy.6 mph81%30.13 "Hg10 mi
2:53 PM58 °FLight rain. More clouds than sun.7 mph78%30.13 "Hg8 mi
1:53 PM57 °FMostly cloudy.9 mph81%30.12 "Hg10 mi
12:53 PM56 °FLight rain. Mostly cloudy.13 mph84%30.12 "Hg10 mi
11:53 AM56 °FLight rain. Mostly cloudy.13 mph87%30.11 "Hg10 mi
10:53 AM55 °FLight rain. Mostly cloudy.9 mph90%30.11 "Hg7 mi
9:53 AM54 °FMore clouds than sun.8 mph93%30.11 "Hg10 mi
8:53 AM54 °FMostly cloudy.8 mph93%30.09 "Hg10 mi
7:53 AM53 °FMostly cloudy.9 mph93%30.09 "Hg10 mi
6:53 AM53 °FLight rain. Fog.9 mph93%30.09 "Hg4 mi
5:53 AM53 °FLight rain. Fog.7 mph96%30.08 "Hg4 mi
4:53 AM53 °FLight rain. Fog.9 mph96%30.08 "Hg5 mi
3:53 AM53 °FLight rain. Fog.8 mph96%30.08 "Hg5 mi
2:53 AM53 °FLight rain. Fog.7 mph96%30.08 "Hg5 mi
1:53 AM53 °FLight rain. Fog.10 mph96%30.07 "Hg6 mi
12:53 AM53 °FLight rain. Fog.7 mph96%30.07 "Hg6 mi
11:53 PM
Sun, Jul 24
54 °FMostly cloudy.13 mph93%30.06 "Hg10 mi
10:53 PM54 °FMostly cloudy.13 mph93%30.05 "Hg10 mi
9:53 PM54 °FLight rain. Fog.12 mph93%30.04 "Hg4 mi
8:53 PM55 °FMostly cloudy.14 mph90%30.03 "Hg10 mi
Weather by CustomWeather, © 2016

See weather overviewHow to use our weather pages